This is the latest recevied weather packets stored in our database for station/object KM5R. If no packets are shown the sender has not sent any weather packets the latest 10 day(s).
| Time | Temp. | Humidity | Pressure | Rain* | Wind** | Luminosity | Snow |
|---|---|---|---|---|---|---|---|
| 1777219273 | 24.44° C | 77% | 1010.9 hPa | 0 mm | - | 218 W/m² | - |
| 1777218969 | 24.44° C | 77% | 1010.8 hPa | 0 mm | - | 122 W/m² | - |
| 1777218665 | 24.44° C | 77% | 1011 hPa | 0 mm | - | 183 W/m² | - |
| 1777218360 | 24.44° C | 77% | 1010.9 hPa | 0 mm | - | 172 W/m² | - |
| 1777218057 | 25° C | 77% | 1010.6 hPa | 0 mm | - | 146 W/m² | - |
| 1777217751 | 25° C | 77% | 1010.7 hPa | 0 mm | - | 316 W/m² | - |
| 1777217448 | 24.44° C | 77% | 1010.6 hPa | 0 mm | - | 378 W/m² | - |
| 1777217144 | 24.44° C | 78% | 1010.8 hPa | 0 mm | - | 284 W/m² | - |
| 1777216841 | 24.44° C | 78% | 1010.9 hPa | 0 mm | - | 210 W/m² | - |
| 1777216538 | 24.44° C | 79% | 1010.5 hPa | 0 mm | - | 203 W/m² | - |
| 1777216234 | 23.89° C | 79% | 1010.7 hPa | 0 mm | - | 228 W/m² | - |
| 1777215931 | 23.89° C | 79% | 1010.7 hPa | 0 mm | - | 202 W/m² | - |
| 1777215628 | 23.89° C | 79% | 1010.5 hPa | 0 mm | - | 204 W/m² | - |
| 1777215323 | 23.89° C | 79% | 1010.9 hPa | 0 mm | - | 168 W/m² | - |
| 1777215020 | 23.89° C | 80% | 1010.6 hPa | 0 mm | - | 150 W/m² | - |
| 1777214719 | 23.89° C | 80% | 1010.8 hPa | 0 mm | - | 167 W/m² | - |
| 1777214414 | 23.89° C | 80% | 1010.6 hPa | 0 mm | - | 153 W/m² | - |
| 1777214114 | 23.89° C | 80% | 1010.8 hPa | 0 mm | - | 147 W/m² | - |
| 1777213809 | 23.33° C | 81% | 1010.9 hPa | 0 mm | - | 127 W/m² | - |
| 1777213504 | 23.33° C | 81% | 1010.6 hPa | 0 mm | - | 132 W/m² | - |
| 1777213201 | 23.33° C | 81% | 1010.8 hPa | 0 mm | - | 117 W/m² | - |
| 1777212898 | 22.78° C | 82% | 1010.7 hPa | 0 mm | - | 147 W/m² | - |
| 1777212596 | 22.78° C | 82% | 1010.7 hPa | 0 mm | - | 124 W/m² | - |
| 1777212294 | 22.78° C | 83% | 1010.7 hPa | 0 mm | - | 64 W/m² | - |
| 1777211990 | 22.78° C | 83% | 1010.8 hPa | 0 mm | - | 73 W/m² | - |
* Rain latest hour (hover to see other rain measurements)
** Current wind speed in m/s (hover to see current wind gust speed)